Alyeska Resort
Hourly Weather - Mid Mountian Site
ALY_MID_HR 6/29/2015
CLICK TO VIEW GRAPH!!

        DATE  TIME   Air   H2o   H2o   New  Snow  BATT   Rel
                    Temp  Inch Since  Snow Depth  Volt  Hum%
                      F   1HR  0600   1HR         AVG   AVG

   6/29/2015 20:00    52  0.00  0.00  44.3  2.51 13.16    86
   6/29/2015 19:00    53  0.00  0.00  45.1  3.08 13.15    83
   6/29/2015 18:00    53  0.00  0.00  45.3  3.13 13.15    80
   6/29/2015 17:00    53  0.00  0.00  45.4  1.04 13.15    84
   6/29/2015 16:00    53  0.00  0.00  45.5  2.63 13.15    82
   6/29/2015 15:00    54  0.00  0.00  45.3  4.57 13.16    79
   6/29/2015 14:00    54  0.00  0.00  44.3 10.03 13.16    79
   6/29/2015 13:00    54  0.00  0.00  42.9  7.33 13.17    77
   6/29/2015 12:00    53  0.00  0.00  40.5  4.38 13.18    77
   6/29/2015 11:00    53  0.00  0.00  38.4  9.27 13.19    80
   6/29/2015 10:00    52  0.00  0.00  37.3  1.38 13.20    81
   6/29/2015 09:00    51  0.00  0.00  36.7  9.72 13.21    81
   6/29/2015 08:00    51  0.00  0.00  36.3  9.36 13.21    75
   6/29/2015 07:00    50  0.00  0.00  36.2  9.11 13.21    77
   6/29/2015 06:00    50  0.00  0.00  35.9  0.44 13.21    74
   6/29/2015 05:00    50  0.00  0.00  35.9  9.72 13.22    76
   6/29/2015 04:00    50  0.00  0.00  35.9  7.28 13.22    76
   6/29/2015 03:00    49  0.00  0.00  35.9  0.16 13.22    78
   6/29/2015 02:00    48  0.00  0.00  35.9  8.49 13.22    82
   6/29/2015 01:00    48  0.00  0.00  35.5  6.75 13.22    84
   6/28/2015 24:00    49  0.00  0.00  35.7  4.48 13.21    81
   6/28/2015 23:00    49  0.00  0.00  36.0  1.40 13.21    82
   6/28/2015 22:00    49  0.00  0.00  37.4  7.83 13.19    81
   6/28/2015 21:00    49  0.00  0.00  40.6  4.00 13.18    80


CLICK TO VIEW GRAPH!!